SCP
-0 -0 -0 -0 -0 -0 -0 -0 -0 -0 -0 -0 -0 -0 -0 -0 -0 -0 -0 -0 -0 0 0 0 0 -0 -0 0 0 -0 -0 -0 -0 -0 -0 -0 -0 -0 -0 -0 -0 0 -0
-1 -0 -0 -0 -0 -0 -0 -0 -0 -0 -0 -0 -0 -0 -0 -0 -0 -0 -0 -0 -0 -0 0 0 0 -0 -0 -0 -0 -0 -0 -0 -0 -0 -0 -0 -0 -0 -0 -0 -0 -0 -0
-1 -0 -0 -0 -0 -0 -0 -0 -0 -0 -0 -0 -0 -0 -0 -0 -0 0 0 -0 -0 -0 -0 0 0 -0 -0 -0 -0 -0 -0 -0 -0 -0 -0 -0 0 -0 0 0 0 0 0
-0 -0 -0 -0 -0 -0 -0 -0 -0 -0 -0 -0 -0 -0 -0 -0 -0 0 0 0 -0 -0 -0 -0 -0 -0 -0 -0 -0 -0 -0 -0 -0 -0 0 0 0 -0 0 0 0 0 0
-0 -0 -0 -0 -0 -0 -0 -0 -0 -0 -0 -0 -0 -0 -0 -0 0 0 0 0 0 -0 0 0 -0 -0 -0 -0 -0 -0 -0 -0 -0 -0 0 0 0 0 -0 0 0 0 0
-0 -0 -0 -0 -0 -0 -0 -0 -0 -0 -0 -0 -0 -0 -0 -0 -0 0 0 0 0 0 0 0 0 0 0 0 -0 -0 -0 -0 -0 0 0 0 0 0 0 0 0 0 0
0 0 -0 -0 -0 -0 -0 -0 -0 -0 -0 -0 -0 -0 -0 -0 -0 0 0 0 0 0 0 0 0 0 0 0 0 -0 -0 -0 -0 0 0 0 0 0 0 0 0 0 0
0 0 0 -0 -0 -0 -0 -0 -0 -0 -0 -0 -0 -0 -0 -0 -0 0 0 0 0 0 0 0 0 0 0 0 0 0 0 -0 -0 0 0 0 0 0 0 0 0 0 0
0 0 0 0 0 -0 -0 -0 -0 -0 -0 -0 -0 -0 -0 -0 -0 0 0 0 0 0 0 0 0 0 0 0 0 0 0 0 0 0 0 0 1 1 1 0 0 0 0
0 0 0 0 0 0 0 0 0 0 0 0 -0 -0 -0 -0 0 0 0 0 0 0 0 0 0 0 0 0 0 0 0 0 0 0 0 0 0 1 1 1 1 1 1
0 0 0 0 0 0 0 0 0 0 0 0 0 0 0 0 0 0 0 0 0 0 0 0 0 0 0 0 0 0 0 0 0 0 0 1 1 1 1 1 1 1 1
0 0 0 0 0 0 0 0 0 0 0 -0 0 0 0 -0 0 0 0 0 0 0 0 0 0 0 0 0 0 0 0 0 0 0 0 1 1 1 1 0 1 1 1
1 0 0 0 0 0 0 0 0 0 0 -0 -0 0 -0 -0 0 -0 0 0 0 0 0 0 0 0 0 0 0 0 0 0 0 0 0 1 1 1 1 1 1 1 1
1 1 0 1 0 -0 0 0 0 0 0 0 0 0 -0 -0 0 0 0 0 0 0 0 0 0 0 0 0 0 0 0 0 0 0 0 1 1 1 1 1 1 1 1
2 1 1 1 0 -0 1 0 0 0 0 0 0 0 -0 -0 0 0 -0 -0 1 0 1 0 0 0 0 0 0 0 0 0 0 0 0 1 1 1 1 1 1 1 1
2 2 1 1 1 1 2 0 -0 0 0 0 0 1 0 -0 -0 1 1 0 -0 1 0 1 1 1 1 0 0 1 0 0 0 0 0 0 1 1 1 1 1 2 2
4 5 2 1 1 2 2 1 0 0 1 0 1 1 1 -0 -1 0 1 3 3 1 2 1 1 1 1 0 0 0 0 0 0 1 1 1 1 1 1 1 2 3 2
3 5 3 2 1 2 2 3 2 3 1 1 1 2 1 1 1 2 1 2 4 3 2 2 1 1 1 0 1 1 1 1 1 2 1 1 1 1 1 2 1 2 2
6 2 2 1 1 1 2 3 3 3 2 2 2 2 1 1 1 2 3 3 3 3 2 1 2 1 1 1 1 0 1 1 1 0 0 0 1 0 0 0 0 1 1
3 2 2 2 1 2 3 3 2 2 2 2 2 3 2 2 1 2 2 3 3 2 2 1 1 1 1 1 1 1 0 0 1 1 1 2 1 0 0 0 0 1 1
2 4 6 4 2 2 2 2 1 1 2 3 3 2 6 3 2 3 2 3 3 2 1 1 2 2 1 2 2 1 1 1 1 1 2 2 1 1 0 0 0 1 1
5 7 6 2 2 2 2 2 3 2 3 3 4 4 3 2 3 3 3 2 2 3 3 2 2 2 2 2 2 2 1 1 1 1 1 1 0 0 0 0 0 0 0
2 2 3 2 3 3 3 3 3 4 4 4 3 3 3 3 3 2 2 2 2 2 3 4 3 3 2 2 2 2 1 1 1 1 1 1 1 0 0 0 0 0 0
1 1 1 2 2 2 2 3 3 4 2 2 3 3 4 3 2 2 2 2 2 2 3 2 2 2 2 1 1 2 2 1 1 0 1 0 1 1 1 1 1 0 0
2 1 2 2 1 2 3 2 2 2 2 3 2 2 2 2 2 1 2 2 1 2 1 1 1 1 1 1 1 1 1 1 1 1 0 0 0 0 0 0 1 1 0
3 3 2 2 2 2 2 2 2 2 2 2 2 2 1 1 1 1 0 1 1 0 0 0 0 1 0 1 0 0 0 1 0 1 0 0 0 0 0 0 0 0 1
Wind_Speed_500mb
37 53 49 44 44 43 42 40 38 33 28 25 25 25 27 29 29 30 31 31 29 25 22 20 17 16 20 19 16 14 13 13 14 15 14 14 15 16 17 17 16 4 8
43 57 50 45 44 44 42 39 38 33 29 26 25 25 27 30 30 29 28 25 23 20 16 13 12 11 15 14 12 13 13 13 12 14 16 18 15 11 8 7 9 10 5
44 56 52 48 45 43 41 38 38 34 30 26 24 24 26 30 30 27 25 21 19 16 14 12 11 9 11 12 12 12 13 14 16 20 21 15 13 18 5 3 5 6 5
48 54 53 49 45 42 40 38 37 35 30 27 23 21 24 29 29 26 22 18 16 15 12 11 10 11 12 13 12 13 14 16 21 21 25 23 10 17 11 5 2 2 3
52 57 53 50 44 40 38 38 38 36 31 27 22 20 22 28 29 23 19 16 15 13 12 11 12 13 14 14 15 15 15 17 25 23 19 11 16 16 17 12 9 7 5
43 49 52 48 43 38 36 37 39 37 32 28 22 17 18 24 26 21 17 15 13 13 12 11 12 13 15 16 15 12 12 14 19 10 11 14 21 29 24 18 13 12 10
41 41 53 48 42 37 36 38 39 37 32 28 22 17 17 22 25 20 16 13 13 13 12 11 10 13 16 14 11 9 8 9 12 14 14 21 19 23 25 20 16 16 16
46 38 52 47 41 38 37 36 37 36 32 28 22 18 17 20 24 21 17 13 13 12 10 8 8 9 11 10 10 10 10 11 8 13 6 15 25 29 31 26 23 21 20
44 35 52 48 42 39 37 36 34 33 30 27 23 19 18 21 23 22 16 12 11 10 9 9 9 9 12 14 16 16 17 18 20 20 15 8 26 31 37 35 31 29 30
36 34 53 49 45 42 42 40 35 32 28 25 22 19 19 20 23 23 18 15 12 10 12 13 14 16 19 23 25 26 27 29 31 31 30 25 25 38 46 45 42 41 39
39 34 44 48 47 45 44 42 38 34 31 28 26 25 24 25 26 26 22 19 16 16 16 17 17 20 23 27 29 30 32 37 38 37 25 32 39 42 51 51 48 45 44
48 41 41 40 46 39 40 42 39 36 33 31 29 27 26 20 18 21 20 21 22 22 22 23 24 26 29 31 32 28 31 39 39 30 26 43 46 51 55 55 53 47 46
52 46 48 47 41 42 38 43 41 37 34 32 28 26 25 17 15 18 23 16 25 29 29 30 29 30 33 35 31 34 37 32 29 26 40 45 50 57 57 57 54 51 47
56 51 54 55 44 49 46 35 34 30 28 28 25 23 26 31 26 13 24 24 22 27 16 26 29 29 34 30 24 28 40 39 38 46 43 45 51 52 54 60 57 58 53
63 60 60 58 50 58 48 30 34 30 26 17 20 21 32 30 25 20 24 25 25 25 22 25 24 26 37 36 38 42 43 42 47 50 51 49 56 57 61 54 55 53 55
78 79 74 65 54 63 42 33 43 35 24 29 26 16 24 27 28 26 24 28 28 23 21 26 23 21 25 30 33 36 41 49 52 50 52 54 52 57 56 56 51 54 56
63 77 74 78 62 66 50 37 38 32 34 29 32 26 24 32 27 32 22 20 17 18 22 32 34 37 40 40 42 41 38 43 50 55 48 55 41 52 57 61 59 55 58
50 65 75 69 63 57 61 43 44 31 37 29 29 28 28 29 36 37 31 22 12 25 24 27 25 36 36 35 40 41 40 47 54 53 46 53 57 57 64 59 41 54 60
64 59 61 46 50 50 61 52 44 38 40 30 34 29 27 31 28 32 16 13 20 31 39 33 27 30 35 39 41 40 47 53 57 61 66 56 64 67 83 60 68 61 72
60 42 69 57 47 50 58 55 50 50 42 39 37 35 23 19 17 24 16 23 26 28 27 32 38 43 47 49 53 54 55 57 62 57 49 60 74 72 72 61 66 74 68
67 73 65 61 47 44 48 54 46 51 44 40 33 27 31 23 21 25 23 23 26 29 32 32 35 41 46 43 48 55 58 63 67 65 65 62 61 60 56 50 44 49 57
66 49 49 51 49 44 43 46 40 41 42 43 36 27 24 21 19 23 25 29 28 25 27 32 34 37 41 34 41 52 41 54 52 25 32 40 46 51 48 38 46 51 55
63 48 41 49 53 48 48 45 40 37 35 34 34 32 27 28 27 24 19 19 24 28 10 25 31 34 38 38 27 31 27 18 41 45 30 44 46 53 44 45 49 53 52
46 55 66 56 42 44 38 41 40 43 37 32 29 27 30 29 27 22 15 18 20 14 21 29 32 34 38 37 38 37 34 42 43 44 56 61 54 46 47 52 59 63 63
46 39 52 47 46 43 45 38 38 26 30 27 26 28 34 28 23 23 17 16 14 15 23 22 22 26 25 26 26 33 40 45 47 44 53 55 60 64 69 64 52 57 60
39 44 44 49 45 41 41 34 32 31 34 33 32 21 11 14 22 17 11 9 10 15 20 23 23 24 26 28 30 33 31 36 44 46 58 64 62 61 54 58 59 52 56
Wind_Direction_500mb
156 157 154 153 152 152 154 157 155 153 148 140 135 132 132 130 131 131 131 134 136 134 129 125 117 121 132 131 133 141 140 133 126 123 112 101 102 104 111 113 109 25 34
158 161 158 157 154 154 157 161 160 159 156 148 140 137 135 134 135 133 132 134 139 141 138 137 134 123 141 138 129 133 135 128 120 109 96 85 72 79 107 124 65 116 88
157 161 160 159 158 157 160 165 165 165 164 156 145 140 139 139 139 135 133 137 145 148 146 147 151 150 152 147 142 138 134 125 112 96 79 56 28 0 15 108 117 123 105
155 161 162 161 160 160 163 168 171 171 169 162 152 146 146 146 145 142 135 138 146 150 154 158 165 161 158 150 144 137 132 124 114 92 80 67 278 308 324 319 271 160 152
159 165 164 162 162 163 166 171 176 176 173 168 160 154 154 155 153 148 140 145 155 157 157 158 160 157 154 153 145 137 135 125 115 91 72 73 252 288 299 304 279 271 260
155 166 164 163 162 164 167 173 178 179 177 173 170 162 161 161 161 158 156 158 160 156 152 149 152 155 158 158 156 153 152 144 144 94 46 273 280 267 294 283 281 278 277
153 174 166 164 162 164 168 175 179 180 181 180 178 174 172 172 172 171 172 171 172 170 158 151 144 157 160 170 179 194 199 181 182 85 54 289 287 274 287 283 279 278 277
160 174 166 163 163 162 164 175 179 180 183 186 188 189 184 183 182 183 184 187 190 187 183 173 177 184 199 215 227 244 247 238 227 165 143 274 283 287 292 288 281 278 278
173 182 168 165 163 163 163 170 176 183 189 194 198 198 195 191 190 193 195 202 207 213 224 227 231 235 244 251 261 265 265 261 261 261 223 253 273 275 283 286 283 281 276
164 182 172 168 165 164 166 171 177 184 192 199 203 202 199 197 197 198 206 215 222 230 239 246 252 257 262 266 270 272 273 271 270 271 271 266 253 267 277 281 279 273 275
162 175 171 171 169 169 171 172 176 184 191 196 197 200 198 200 197 203 212 220 232 240 245 253 261 266 267 268 271 274 277 278 277 275 279 279 269 265 272 279 277 273 271
165 164 172 172 171 165 175 173 177 182 188 193 196 195 195 195 205 213 227 238 242 246 253 260 265 268 270 275 278 277 294 309 291 281 269 268 271 274 278 284 281 278 277
170 167 174 176 172 166 178 179 181 184 188 191 195 192 189 149 235 200 250 275 273 260 262 270 272 280 292 293 286 282 287 297 298 290 274 276 278 278 282 289 285 280 280
173 172 178 183 177 171 190 188 181 187 190 193 197 190 184 170 215 244 224 271 314 321 292 308 298 297 298 303 292 274 269 268 272 269 278 275 286 281 286 291 293 283 278
175 175 178 184 183 168 192 191 175 185 188 191 208 214 184 167 203 223 203 231 272 294 296 300 293 286 287 287 279 279 288 279 279 277 276 274 282 291 291 290 297 293 281
180 181 180 182 186 172 178 182 177 188 187 193 212 237 209 182 196 227 213 217 232 228 255 271 269 269 266 272 277 280 283 285 283 279 273 272 275 277 290 291 290 293 295
200 171 180 175 181 179 175 181 175 190 189 189 209 225 237 205 209 225 219 229 246 266 267 274 276 281 284 281 286 291 293 285 281 280 285 275 268 290 286 289 290 284 279
208 174 173 169 179 187 181 177 185 183 198 191 195 214 228 238 213 223 224 222 242 261 254 259 270 283 281 289 286 286 282 284 284 278 281 292 289 286 291 275 299 289 289
221 188 149 172 184 178 188 193 187 194 191 205 200 211 241 249 234 230 230 222 267 261 269 294 293 278 280 285 296 300 289 286 282 285 281 283 284 288 282 326 304 288 286
214 203 191 185 186 190 197 193 197 200 200 207 215 215 229 242 238 240 233 229 253 270 267 277 282 282 287 295 295 288 282 280 280 292 292 285 293 296 297 310 293 298 292
200 188 185 180 180 190 183 189 192 200 196 202 206 221 218 217 208 237 243 246 255 267 284 297 298 296 297 303 303 300 295 289 286 284 289 289 294 304 303 302 309 322 319
187 187 181 192 195 191 189 187 197 204 204 200 195 201 207 221 219 216 235 239 257 269 289 299 299 298 296 301 298 303 305 304 310 296 287 288 294 302 309 305 312 319 323
192 188 215 202 193 195 198 191 188 193 199 194 195 206 211 206 216 230 240 250 260 273 286 276 285 292 296 301 309 296 297 290 303 304 294 301 300 303 310 311 310 310 314
185 171 189 190 186 185 181 182 189 191 186 182 188 199 200 196 210 228 243 253 278 287 278 285 284 290 300 302 294 290 289 292 294 297 296 300 312 305 303 308 306 302 302
191 191 185 189 191 186 182 186 180 170 178 172 190 181 194 204 202 218 228 254 276 262 280 293 297 307 308 308 314 312 307 307 304 300 302 303 296 295 299 305 300 306 307
182 195 193 195 189 182 174 170 171 176 170 162 163 175 185 206 200 204 217 244 262 282 301 304 309 307 313 309 312 307 306 312 314 314 310 309 308 302 298 301 308 312 298
Wind_Speed_850mb
37 53 49 44 44 43 42 40 38 33 28 25 25 25 27 29 29 30 31 31 29 25 22 20 17 16 20 19 16 14 13 13 14 15 14 14 15 16 17 17 16 4 8
43 57 50 45 44 44 42 39 38 33 29 26 25 25 27 30 30 29 28 25 23 20 16 13 12 11 15 14 12 13 13 13 12 14 16 18 15 11 8 7 9 10 5
44 56 52 48 45 43 41 38 38 34 30 26 24 24 26 30 30 27 25 21 19 16 14 12 11 9 11 12 12 12 13 14 16 20 21 15 13 18 5 3 5 6 5
48 54 53 49 45 42 40 38 37 35 30 27 23 21 24 29 29 26 22 18 16 15 12 11 10 11 12 13 12 13 14 16 21 21 25 23 10 17 11 5 2 2 3
52 57 53 50 44 40 38 38 38 36 31 27 22 20 22 28 29 23 19 16 15 13 12 11 12 13 14 14 15 15 15 17 25 23 19 11 16 16 17 12 9 7 5
43 49 52 48 43 38 36 37 39 37 32 28 22 17 18 24 26 21 17 15 13 13 12 11 12 13 15 16 15 12 12 14 19 10 11 14 21 29 24 18 13 12 10
41 41 53 48 42 37 36 38 39 37 32 28 22 17 17 22 25 20 16 13 13 13 12 11 10 13 16 14 11 9 8 9 12 14 14 21 19 23 25 20 16 16 16
46 38 52 47 41 38 37 36 37 36 32 28 22 18 17 20 24 21 17 13 13 12 10 8 8 9 11 10 10 10 10 11 8 13 6 15 25 29 31 26 23 21 20
44 35 52 48 42 39 37 36 34 33 30 27 23 19 18 21 23 22 16 12 11 10 9 9 9 9 12 14 16 16 17 18 20 20 15 8 26 31 37 35 31 29 30
36 34 53 49 45 42 42 40 35 32 28 25 22 19 19 20 23 23 18 15 12 10 12 13 14 16 19 23 25 26 27 29 31 31 30 25 25 38 46 45 42 41 39
39 34 44 48 47 45 44 42 38 34 31 28 26 25 24 25 26 26 22 19 16 16 16 17 17 20 23 27 29 30 32 37 38 37 25 32 39 42 51 51 48 45 44
48 41 41 40 46 39 40 42 39 36 33 31 29 27 26 20 18 21 20 21 22 22 22 23 24 26 29 31 32 28 31 39 39 30 26 43 46 51 55 55 53 47 46
52 46 48 47 41 42 38 43 41 37 34 32 28 26 25 17 15 18 23 16 25 29 29 30 29 30 33 35 31 34 37 32 29 26 40 45 50 57 57 57 54 51 47
56 51 54 55 44 49 46 35 34 30 28 28 25 23 26 31 26 13 24 24 22 27 16 26 29 29 34 30 24 28 40 39 38 46 43 45 51 52 54 60 57 58 53
63 60 60 58 50 58 48 30 34 30 26 17 20 21 32 30 25 20 24 25 25 25 22 25 24 26 37 36 38 42 43 42 47 50 51 49 56 57 61 54 55 53 55
78 79 74 65 54 63 42 33 43 35 24 29 26 16 24 27 28 26 24 28 28 23 21 26 23 21 25 30 33 36 41 49 52 50 52 54 52 57 56 56 51 54 56
63 77 74 78 62 66 50 37 38 32 34 29 32 26 24 32 27 32 22 20 17 18 22 32 34 37 40 40 42 41 38 43 50 55 48 55 41 52 57 61 59 55 58
50 65 75 69 63 57 61 43 44 31 37 29 29 28 28 29 36 37 31 22 12 25 24 27 25 36 36 35 40 41 40 47 54 53 46 53 57 57 64 59 41 54 60
64 59 61 46 50 50 61 52 44 38 40 30 34 29 27 31 28 32 16 13 20 31 39 33 27 30 35 39 41 40 47 53 57 61 66 56 64 67 83 60 68 61 72
60 42 69 57 47 50 58 55 50 50 42 39 37 35 23 19 17 24 16 23 26 28 27 32 38 43 47 49 53 54 55 57 62 57 49 60 74 72 72 61 66 74 68
67 73 65 61 47 44 48 54 46 51 44 40 33 27 31 23 21 25 23 23 26 29 32 32 35 41 46 43 48 55 58 63 67 65 65 62 61 60 56 50 44 49 57
66 49 49 51 49 44 43 46 40 41 42 43 36 27 24 21 19 23 25 29 28 25 27 32 34 37 41 34 41 52 41 54 52 25 32 40 46 51 48 38 46 51 55
63 48 41 49 53 48 48 45 40 37 35 34 34 32 27 28 27 24 19 19 24 28 10 25 31 34 38 38 27 31 27 18 41 45 30 44 46 53 44 45 49 53 52
46 55 66 56 42 44 38 41 40 43 37 32 29 27 30 29 27 22 15 18 20 14 21 29 32 34 38 37 38 37 34 42 43 44 56 61 54 46 47 52 59 63 63
46 39 52 47 46 43 45 38 38 26 30 27 26 28 34 28 23 23 17 16 14 15 23 22 22 26 25 26 26 33 40 45 47 44 53 55 60 64 69 64 52 57 60
39 44 44 49 45 41 41 34 32 31 34 33 32 21 11 14 22 17 11 9 10 15 20 23 23 24 26 28 30 33 31 36 44 46 58 64 62 61 54 58 59 52 56
Wind_Direction_850mb
156 157 154 153 152 152 154 157 155 153 148 140 135 132 132 130 131 131 131 134 136 134 129 125 117 121 132 131 133 141 140 133 126 123 112 101 102 104 111 113 109 25 34
158 161 158 157 154 154 157 161 160 159 156 148 140 137 135 134 135 133 132 134 139 141 138 137 134 123 141 138 129 133 135 128 120 109 96 85 72 79 107 124 65 116 88
157 161 160 159 158 157 160 165 165 165 164 156 145 140 139 139 139 135 133 137 145 148 146 147 151 150 152 147 142 138 134 125 112 96 79 56 28 0 15 108 117 123 105
155 161 162 161 160 160 163 168 171 171 169 162 152 146 146 146 145 142 135 138 146 150 154 158 165 161 158 150 144 137 132 124 114 92 80 67 278 308 324 319 271 160 152
159 165 164 162 162 163 166 171 176 176 173 168 160 154 154 155 153 148 140 145 155 157 157 158 160 157 154 153 145 137 135 125 115 91 72 73 252 288 299 304 279 271 260
155 166 164 163 162 164 167 173 178 179 177 173 170 162 161 161 161 158 156 158 160 156 152 149 152 155 158 158 156 153 152 144 144 94 46 273 280 267 294 283 281 278 277
153 174 166 164 162 164 168 175 179 180 181 180 178 174 172 172 172 171 172 171 172 170 158 151 144 157 160 170 179 194 199 181 182 85 54 289 287 274 287 283 279 278 277
160 174 166 163 163 162 164 175 179 180 183 186 188 189 184 183 182 183 184 187 190 187 183 173 177 184 199 215 227 244 247 238 227 165 143 274 283 287 292 288 281 278 278
173 182 168 165 163 163 163 170 176 183 189 194 198 198 195 191 190 193 195 202 207 213 224 227 231 235 244 251 261 265 265 261 261 261 223 253 273 275 283 286 283 281 276
164 182 172 168 165 164 166 171 177 184 192 199 203 202 199 197 197 198 206 215 222 230 239 246 252 257 262 266 270 272 273 271 270 271 271 266 253 267 277 281 279 273 275
162 175 171 171 169 169 171 172 176 184 191 196 197 200 198 200 197 203 212 220 232 240 245 253 261 266 267 268 271 274 277 278 277 275 279 279 269 265 272 279 277 273 271
165 164 172 172 171 165 175 173 177 182 188 193 196 195 195 195 205 213 227 238 242 246 253 260 265 268 270 275 278 277 294 309 291 281 269 268 271 274 278 284 281 278 277
170 167 174 176 172 166 178 179 181 184 188 191 195 192 189 149 235 200 250 275 273 260 262 270 272 280 292 293 286 282 287 297 298 290 274 276 278 278 282 289 285 280 280
173 172 178 183 177 171 190 188 181 187 190 193 197 190 184 170 215 244 224 271 314 321 292 308 298 297 298 303 292 274 269 268 272 269 278 275 286 281 286 291 293 283 278
175 175 178 184 183 168 192 191 175 185 188 191 208 214 184 167 203 223 203 231 272 294 296 300 293 286 287 287 279 279 288 279 279 277 276 274 282 291 291 290 297 293 281
180 181 180 182 186 172 178 182 177 188 187 193 212 237 209 182 196 227 213 217 232 228 255 271 269 269 266 272 277 280 283 285 283 279 273 272 275 277 290 291 290 293 295
200 171 180 175 181 179 175 181 175 190 189 189 209 225 237 205 209 225 219 229 246 266 267 274 276 281 284 281 286 291 293 285 281 280 285 275 268 290 286 289 290 284 279
208 174 173 169 179 187 181 177 185 183 198 191 195 214 228 238 213 223 224 222 242 261 254 259 270 283 281 289 286 286 282 284 284 278 281 292 289 286 291 275 299 289 289
221 188 149 172 184 178 188 193 187 194 191 205 200 211 241 249 234 230 230 222 267 261 269 294 293 278 280 285 296 300 289 286 282 285 281 283 284 288 282 326 304 288 286
214 203 191 185 186 190 197 193 197 200 200 207 215 215 229 242 238 240 233 229 253 270 267 277 282 282 287 295 295 288 282 280 280 292 292 285 293 296 297 310 293 298 292
200 188 185 180 180 190 183 189 192 200 196 202 206 221 218 217 208 237 243 246 255 267 284 297 298 296 297 303 303 300 295 289 286 284 289 289 294 304 303 302 309 322 319
187 187 181 192 195 191 189 187 197 204 204 200 195 201 207 221 219 216 235 239 257 269 289 299 299 298 296 301 298 303 305 304 310 296 287 288 294 302 309 305 312 319 323
192 188 215 202 193 195 198 191 188 193 199 194 195 206 211 206 216 230 240 250 260 273 286 276 285 292 296 301 309 296 297 290 303 304 294 301 300 303 310 311 310 310 314
185 171 189 190 186 185 181 182 189 191 186 182 188 199 200 196 210 228 243 253 278 287 278 285 284 290 300 302 294 290 289 292 294 297 296 300 312 305 303 308 306 302 302
191 191 185 189 191 186 182 186 180 170 178 172 190 181 194 204 202 218 228 254 276 262 280 293 297 307 308 308 314 312 307 307 304 300 302 303 296 295 299 305 300 306 307
182 195 193 195 189 182 174 170 171 176 170 162 163 175 185 206 200 204 217 244 262 282 301 304 309 307 313 309 312 307 306 312 314 314 310 309 308 302 298 301 308 312 298